Weather History for LGKZ - October, 2013

Change the Weather History Date:

Tuesday, October 29, 2013

  Actual Average Record
Temperature  
Mean Temperature 62 °F -  
Max Temperature 75 °F - - ()
Min Temperature 50 °F - - ()
Degree Days  
Heating Degree Days 2    
Growing Degree Days 12 (Base 50)    
Moisture  
Dew Point 40 °F    
Average Humidity 51    
Maximum Humidity 66    
Minimum Humidity 27    
Precipitation  
Precipitation 0.00 in - - ()
Sea Level Pressure  
Sea Level Pressure 30.08 in    
Wind  
Wind Speed 4 mph ()    
Max Wind Speed 7 mph    
Max Gust Speed -    
T = Trace of Precipitation, MM = Missing Value Source: Averaged Metar Reports

Daily Weather History Graph

Daily Weather History Graph

Search for Another Location

Airport or City:

Trip Planner

Search our weather history database for the weather conditions in past years. The results will help you decide how hot, cold, wet, or windy it might be!

Date:

Astronomy

Oct. 29, 2013 Rise Set
Actual Time 6:58 AM EET 5:33 PM EET
Civil Twilight 6:30 AM EET 6:01 PM EET
Nautical Twilight 5:58 AM EET 6:33 PM EET
Astronomical Twilight 5:27 AM EET 7:04 PM EET
Moon 1:30 AM EET (10/29) 2:37 PM EET (10/29)
Length of Visible Light 11h 30m
Length of Day
10h 34m
Waning Crescent, 27% of the Moon is Illuminated
Oct 29
Waning Crescent
Nov 3
New
Nov 10
First Quarter
Nov 17
Full
Nov 25
Last Quarter

Hourly Weather History & Observations

Time (EET) Temp. Dew Point Humidity Pressure Visibility Wind Dir Wind Speed Gust Speed Precip Events Conditions
12:20 AM 51.8 °F 39.2 °F 62% 30.09 in - North 4.6 mph - N/A   Unknown
12:50 AM 53.6 °F 39.2 °F 58% 30.09 in - North 5.8 mph - N/A   Unknown
1:20 AM 53.6 °F 39.2 °F 58% 30.09 in - North 5.8 mph - N/A   Unknown
1:50 AM 53.6 °F 39.2 °F 58% 30.09 in - Variable 3.5 mph - N/A   Unknown
2:20 AM 53.6 °F 39.2 °F 58% 30.09 in - Variable 3.5 mph - N/A   Unknown
3:20 AM 51.8 °F 39.2 °F 62% 30.06 in - North 4.6 mph - N/A   Unknown
3:50 AM 51.8 °F 39.2 °F 62% 30.06 in - NNE 4.6 mph - N/A   Unknown
4:20 AM 51.8 °F 39.2 °F 62% 30.06 in - North 5.8 mph - N/A   Unknown
4:50 AM 51.8 °F 39.2 °F 62% 30.06 in - NNE 4.6 mph - N/A   Unknown
5:20 AM 50.0 °F 39.2 °F 66% 30.06 in - Variable 3.5 mph - N/A   Unknown
5:50 AM 50.0 °F 39.2 °F 66% 30.06 in - North 5.8 mph - N/A   Unknown
6:20 AM 50.0 °F 39.2 °F 66% 30.09 in - NNW 6.9 mph - N/A   Unknown
6:50 AM 51.8 °F 39.2 °F 62% 30.09 in - NNW 4.6 mph - N/A   Clear
7:50 AM 53.6 °F 39.2 °F 58% 30.09 in - NNW 4.6 mph - N/A   Clear
8:50 AM 59.0 °F 41.0 °F 51% 30.12 in - Calm Calm - N/A   Clear
9:50 AM 62.6 °F 42.8 °F 48% 30.12 in - Calm Calm - N/A   Clear
10:50 AM 64.4 °F 42.8 °F 45% 30.12 in - Calm Calm - N/A   Clear
11:50 AM 68.0 °F 42.8 °F 40% 30.09 in - Calm Calm - N/A   Clear
12:50 PM 71.6 °F 41.0 °F 33% 30.06 in - Calm Calm - N/A   Clear
1:20 PM 71.6 °F 41.0 °F 33% 30.06 in - Calm Calm - N/A   Clear
1:50 PM 75.2 °F 39.2 °F 27% 30.04 in - South 4.6 mph - N/A   Clear
2:50 PM 75.2 °F 39.2 °F 27% 30.04 in - SE 4.6 mph - N/A   Clear
3:50 PM 75.2 °F 39.2 °F 27% 30.04 in - Calm Calm - N/A   Clear
4:50 PM 73.4 °F 39.2 °F 29% 30.04 in - Calm Calm - N/A   Clear
6:50 PM 60.8 °F 39.2 °F 45% 30.06 in - Calm Calm - N/A   Clear
7:50 PM 57.2 °F 41.0 °F 55% 30.06 in - Calm Calm - N/A   Clear
8:20 PM 62.6 °F 42.8 °F 48% 30.09 in - NW 5.8 mph - N/A   Unknown
8:50 PM 62.6 °F 42.8 °F 48% 30.09 in - NNW 4.6 mph - N/A   Unknown
9:20 PM 59.0 °F 41.0 °F 51% 30.09 in - North 4.6 mph - N/A   Unknown
9:50 PM 60.8 °F 41.0 °F 48% 30.09 in - NW 6.9 mph - N/A   Unknown
10:20 PM 60.8 °F 41.0 °F 48% 30.09 in - WNW 5.8 mph - N/A   Unknown
10:50 PM 59.0 °F 41.0 °F 51% 30.09 in - NNW 5.8 mph - N/A   Unknown
11:20 PM 59.0 °F 41.0 °F 51% 30.09 in - NW 5.8 mph - N/A   Unknown
11:50 PM 57.2 °F 41.0 °F 55% 30.09 in - North 4.6 mph - N/A   Unknown